Simultaneous Nadir Overpasses (SNOs) Predictions

Prediction of SNOs between GOES-15 and METOP-B Satellite Orbit:

Table of predicted SNOs for the next 14.0 days since TLE Epoch: 2/28/2025
Index Date Time (GOES-15) GOES-15 Lat,Lon METOP-B Lat,Lon Distance(km) Time Diff (sec)
1 03/02/2025 17:03:22 0.01, 61.33 0.07, 61.72 44.00 80
2 03/04/2025 05:22:20 -0.02, 61.35 0.90, 57.11 483.27 80
3 03/05/2025 05:04:23 -0.02, 61.35 -0.21, 62.08 84.08 80
4 03/06/2025 17:23:28 0.03, 61.31 -0.83, 57.45 440.08 80
5 03/07/2025 17:00:11 0.02, 61.32 0.30, 62.42 126.33 80
6 03/09/2025 05:19:06 -0.03, 61.36 0.77, 57.83 402.42 80
7 03/10/2025 05:01:10 -0.03, 61.36 -0.36, 62.80 164.67 80
8 03/11/2025 17:20:14 0.04, 61.32 -0.65, 58.17 358.73 80
9 03/12/2025 16:56:57 0.03, 61.32 0.43, 63.15 207.93 80
10 03/14/2025 05:15:53 -0.04, 61.37 0.56, 58.54 321.06 80
